Regional Weather Roundup
Issued by NWS Burlington, VT

Home | Current Version | Previous Version | Text Only | Print | Product List | Glossary On
Versions: 1 2 3 4 5 6 7 8 9 10 11 12 13 14 15 16 17 18 19 20 21 22 23 24 25 26 27 28 29 30 31 32 33 34 35 36 37 38 39 40 41 42 43 44 45 46 47 48 49 50
000
ASUS41 KBTV 211230
RWRBTV
VERMONT REGIONAL WEATHER ROUNDUP
NATIONAL WEATHER SERVICE BURLINGTON VT
800 AM EDT SUN SEP 21 2014

NOTE: "FAIR" INDICATES FEW OR NO CLOUDS BELOW 12,000 FEET WITH NO
SIGNIFICANT WEATHER AND/OR OBSTRUCTIONS TO VISIBILITY.

* THESE REPORTS ARE NOT UNDER NWS QUALITY CONTROL AND/OR DO NOT
  REPORT WEATHER SUCH AS PRECIPITATION AND FOG.

VTZ001>019-211300-
_____VERMONT_____


CITY           SKY/WX    TMP DP  RH WIND       PRES   REMARKS
BURLINGTON     MOSUNNY   66  59  78 S22G32    29.82R
6HR MIN TEMP:  64; 6HR MAX TEMP:  66;

MONTPELIER     SUNNY     58  54  86 S9        29.92S
6HR MIN TEMP:  53; 6HR MAX TEMP:  59;

MORRISVILLE    SUNNY     58  53  84 CALM      29.85F
6HR MIN TEMP:  53; 6HR MAX TEMP:  66;

ST. JOHNSBURY*   N/A     57  54  89 MISG      29.88S
6HR MIN TEMP:  53; 6HR MAX TEMP:  62;

MIDDLEBURY*    CLOUDY    65  62  89 CALM      29.86F
6HR MIN TEMP:  61; 6HR MAX TEMP:  66;

RUTLAND*       SUNNY     63  57  82 SE8       29.88F
6HR MIN TEMP:  54; 6HR MAX TEMP:  63;

SPRINGFIELD    CLOUDY    54  53  97 CALM      29.93F
6HR MIN TEMP:  49; 6HR MAX TEMP:  57;

HIGHGATE*      FAIR      66  56  71 S14G21    29.77R
6HR MIN TEMP:  64; 6HR MAX TEMP:  65;

NEWPORT*       FAIR      59  54  82 S10       29.85S
6HR MIN TEMP:  55; 6HR MAX TEMP:  59;

BENNINGTON     PTSUNNY   67  59  75 CALM      29.89F
6HR MIN TEMP:  58; 6HR MAX TEMP:  67;

SUTTON*          N/A     55 N/A N/A MISG        N/A
MT. MANSFIELD*   N/A     54 N/A N/A W12G33      N/A

_____LAKE CHAMPLAIN_____


CITY           SKY/WX    TMP DP  RH WIND       PRES   REMARKS
BURTON ISLAND*   N/A     66  57  72 SE29        N/A
COLCHESTER RF*   N/A     61  59  94 SW26        N/A
DIAMOND ISL*     N/A     61  57  88 S9          N/A

$$

NYZ007-026>031-035-052-083-211300-
_____NORTHERN NEW YORK_____


CITY           SKY/WX    TMP DP  RH WIND       PRES   REMARKS
PLATTSBURGH    SUNNY     64  55  72 S13G21    29.77F
6HR MIN TEMP:  61; 6HR MAX TEMP:  64;

SARANAC LAKE   MOSUNNY   61  55  81 SW12G22   29.79S
6HR MIN TEMP:  59; 6HR MAX TEMP:  62;

MASSENA        PTSUNNY   69  59  70 SW14      29.70S
6HR MIN TEMP:  68; 6HR MAX TEMP:  70;

OGDENSBURG*    RAIN      64  61  88 SW12      29.70F
POTSDAM*       LGT RAIN  64  63  94 S10G17    29.72S
WATERTOWN      CLOUDY    69  56  62 S9G21     29.71F
6HR MIN TEMP:  69; 6HR MAX TEMP:  70;

FT DRUM        PTSUNNY   67  56  69 S20       29.72F
6HR MIN TEMP:  66; 6HR MAX TEMP:  68; 6HR PCP: TRACE;

ALBANY         CLOUDY    65  60  84 S14G28    29.88S
6HR MIN TEMP:  60; 6HR MAX TEMP:  65;

GLENS FALLS    CLOUDY    61  59  93 SW7       29.89R
6HR MIN TEMP:  50; 6HR MAX TEMP:  61;


$$
NHZ002-005-011-211300-
_____NEW HAMPSHIRE_____


CITY           SKY/WX    TMP DP  RH WIND       PRES   REMARKS
LEBANON        CLOUDY    58  54  86 NE6       29.90F
6HR MIN TEMP:  50; 6HR MAX TEMP:  61;

KEENE          CLOUDY    63  55  77 CALM      29.93F
6HR MIN TEMP:  63; 6HR MAX TEMP:  64;

MT WASHINGTON  PTSUNNY   46  45  93 SW41G49     N/A
6HR MIN TEMP:  43; 6HR MAX TEMP:  47;

PLYMOUTH       CLOUDY    56  56 100 CALM      29.93F
6HR MIN TEMP:  50; 6HR MAX TEMP:  55;

WHITEFIELD     PTSUNNY   54  51  90 CALM      29.91S
6HR MIN TEMP:  47; 6HR MAX TEMP:  64;


$$

_____REGIONAL QUEBEC LOCATIONS_____


CITY           SKY/WX    TMP DP  RH WIND       PRES   REMARKS
MONTREAL       PTSUNNY   63  59  88 SE10      29.70S
QUEBEC CITY    PTSUNNY   64  57  77 S9        29.69
SHERBROOKE     SUNNY     64  54  68 S12G18    29.80S

_____REGIONAL ONTARIO LOCATIONS_____


CITY           SKY/WX    TMP DP  RH WIND       PRES   REMARKS
OTTAWA         CLOUDY    64  61  88 S10G17    29.68R

______KEY______
VSB  - VISIBILITY IN MILES
WCI  - WIND CHILL INDEX
HX   - HEAT INDEX
$$



USA.gov is the U.S. government's official web portal to all federal, state and local government web resources and services.